Tracking 23581 objects as of 27-Jul-2021
HD Live streaming from Space Station
objects crossing your sky now

COSMOS 2491 DEB

Track COSMOS 2491 DEB now!
10-day predictions


NORAD ID: 44994
Int'l Code: 2013-076Q
Perigee: 1,339.3 km
Apogee: 1,508.3 km
Inclination: 82.5 °
Period: 114.1 minutes
Semi major axis: 7794 km
RCS: Unknown
Launch date: December 25, 2013
Source: Commonwealth of Independent States (former USSR) (CIS)
Launch site: PLESETSK MISSILE AND SPACE COMPLEX (PKMTR)

Note: This is SATELLITE DEBRIS
aabbcc
Your satellite tracking list
Your tracking list is empty




NASA's NSSDC Master Catalog

Two Line Element Set (TLE):
1 44994U 13076Q   20030.16900591 -.00000557 +00000+0 -31368-2 0  9994
2 44994  82.4772 180.8201 0108452  36.3094 324.5293 12.61527065002822
Source of the keplerian elements: AFSPC